Location: La Tine
(46.4708°N, 7.0525°E)
Time: 17:42:06
(UTC+00:00)

Cosmos 2026 Rocket - Visible Passes

Search period start: 15 January 2021 00:00
Search period end: 25 January 2021 00:00
Orbit: 939 x 1001 km, 82.9° (Epoch: 15 January)

Date Brightness Start Highest point End Pass type
(mag) Time Alt. Az. Time Alt. Az. Time Alt. Az.
15 Jan 5.1 05:48:29 10° N 05:54:33 47° ENE 06:00:38 10° SSE visible
15 Jan 6.2 19:20:07 10° S 19:20:16 11° S 19:20:16 11° S visible
16 Jan 6.6 04:28:47 10° NNE 04:32:06 14° ENE 04:35:25 10° E visible
16 Jan 4.3 06:12:08 10° N 06:18:28 78° E 06:24:50 10° SSE visible
16 Jan 5.9 18:00:39 10° SE 18:00:50 11° SE 18:00:50 11° SE visible
16 Jan 5.9 19:44:03 10° SSW 19:45:31 18° SSW 19:45:31 18° SSW visible
17 Jan 6.2 04:51:28 10° NNE 04:56:27 24° ENE 05:01:26 10° ESE visible
17 Jan 4.1 06:36:00 10° NNW 06:42:15 65° W 06:48:31 10° S visible
17 Jan 4.9 18:23:10 10° SSE 18:26:18 28° SE 18:26:18 28° SE visible
17 Jan 5.8 20:08:31 10° SW 20:10:59 22° WSW 20:10:59 22° WSW visible
18 Jan 5.4 05:14:45 10° N 05:20:37 38° ENE 05:26:29 10° SE visible
18 Jan 3.8 18:46:21 10° S 18:52:06 66° ESE 18:52:06 66° ESE visible
18 Jan 6.1 20:33:37 10° WSW 20:36:50 20° W 20:36:50 20° W visible
19 Jan 6.8 03:55:55 10° NE 03:57:58 12° ENE 04:00:00 10° ENE visible
19 Jan 4.6 05:38:19 10° N 05:44:37 63° ENE 05:50:55 10° SSE visible
19 Jan 5.1 17:27:35 10° ESE 17:31:37 19° E 17:33:53 15° NE visible
19 Jan 4.0 19:10:04 10° SSW 19:16:08 74° W 19:18:42 37° N visible
19 Jan 6.6 20:59:48 10° W 21:02:37 13° WNW 21:03:32 13° NW visible
20 Jan 6.4 04:17:59 10° NNE 04:22:24 19° ENE 04:26:50 10° ESE visible
20 Jan 4.0 06:02:06 10° N 06:08:27 81° W 06:14:49 10° S visible
20 Jan 4.6 17:49:45 10° SE 17:55:01 32° E 18:00:22 10° NNE visible
20 Jan 4.9 19:34:17 10° SW 19:40:04 44° WNW 19:46:00 10° N visible
21 Jan 5.8 04:41:05 10° N 04:46:39 31° ENE 04:52:12 10° SE visible
21 Jan 4.3 06:26:05 10° NNW 06:32:08 48° W 06:38:12 10° SSW visible
21 Jan 4.0 18:12:40 10° SSE 18:18:34 53° E 18:24:34 10° NNE visible
21 Jan 5.8 19:59:05 10° SW 20:04:11 27° WNW 20:09:23 10° N visible
22 Jan 4.9 05:04:32 10° N 05:10:43 51° ENE 05:16:53 10° SSE visible
22 Jan 5.4 16:54:48 10° ESE 16:57:59 15° ENE 17:01:13 10° NE visible
22 Jan 3.9 18:36:09 10° S 18:42:16 89° ESE 18:48:31 10° N visible
22 Jan 6.4 20:24:41 10° W 20:28:29 17° WNW 20:32:20 10° NNW visible
23 Jan 6.6 03:44:38 10° NNE 03:48:19 16° ENE 03:52:00 10° E visible
23 Jan 4.1 05:28:14 10° N 05:34:37 83° E 05:41:01 10° S visible
23 Jan 4.9 17:16:27 10° SE 17:21:18 25° E 17:26:14 10° NNE visible
23 Jan 4.6 19:00:09 10° SSW 19:06:08 55° WNW 19:12:16 10° N visible
24 Jan 6.0 04:07:28 10° NNE 04:12:39 25° ENE 04:17:49 10° ESE visible
24 Jan 4.1 05:52:08 10° NNW 05:58:22 61° W 06:04:37 10° S visible
24 Jan 4.3 17:39:06 10° SSE 17:44:48 43° E 17:50:36 10° NNE visible
24 Jan 5.5 19:24:42 10° SW 19:30:10 33° WNW 19:35:46 10° N visible
